RH
60 59 56 57 55 52 42 37 36 36 36 37 38 41 45 55 69 81 93 98 99 100 100 100 99 93 82 70 80 72 75 94 92 96 100 89 85 82 72 81 81 88 87
49 49 49 44 39 37 36 36 38 38 37 37 37 39 43 52 54 51 52 53 58 63 72 89 95 100 97 95 99 87 91 97 85 98 97 97 93 80 82 87 81 90 85
44 42 43 41 39 38 40 40 38 38 37 38 40 41 45 43 38 34 31 29 32 38 44 50 61 70 89 97 95 98 100 99 100 100 99 98 89 99 90 84 88 86 81
48 45 43 44 45 44 42 41 40 38 35 34 33 40 36 30 27 27 30 33 37 46 52 53 54 56 59 65 86 89 96 100 99 100 100 100 100 100 94 99 96 86 87
46 49 53 54 49 47 45 42 37 31 28 30 34 33 37 39 42 43 45 50 55 56 60 63 67 78 83 80 79 72 69 82 90 93 96 96 100 97 100 98 99 94 95
57 56 58 54 50 47 42 32 26 22 24 34 37 45 52 59 76 72 66 61 62 62 62 65 66 66 72 80 76 82 97 95 94 95 99 99 98 98 97 96 100 99 100
56 60 55 50 45 40 32 24 21 29 44 50 58 61 65 66 70 70 69 68 70 68 65 64 64 65 64 68 80 88 95 98 98 98 99 100 100 100 95 93 100 100 100
59 57 55 45 36 32 29 28 35 46 61 71 86 95 92 74 62 53 57 61 68 76 76 68 64 65 67 66 67 68 70 77 84 98 99 99 100 100 100 100 99 99 100
58 57 52 38 35 38 37 39 51 70 83 85 95 92 80 76 66 63 60 58 56 59 67 78 88 88 79 76 74 68 65 66 70 83 96 98 99 98 97 97 99 100 99
66 62 47 43 40 41 46 54 74 75 66 66 65 68 69 67 67 64 66 63 59 54 59 70 94 100 100 99 94 88 77 72 66 59 74 95 100 98 99 99 99 100 100
70 57 48 44 47 46 55 61 55 52 48 44 45 48 50 51 55 66 72 69 71 71 70 61 68 94 99 99 100 100 98 92 80 77 94 100 100 98 98 99 100 100 99
62 53 48 48 50 57 52 54 55 59 55 51 59 66 88 80 66 72 67 65 80 84 91 98 98 100 100 99 98 98 98 94 89 87 98 100 100 99 98 99 99 99 99
59 58 51 48 51 48 45 50 66 89 78 85 95 100 100 100 98 96 90 83 76 66 92 100 100 100 98 98 99 93 97 100 100 100 100 100 98 99 99 99 99 99 99
51 48 53 44 44 43 46 70 95 99 100 98 99 90 90 98 100 100 95 90 89 87 100 100 99 99 100 100 100 98 97 99 100 100 99 98 98 99 99 97 99 100 100
53 53 51 49 50 58 79 86 92 91 89 87 98 94 96 92 96 98 99 97 90 85 91 99 99 99 99 98 98 97 97 98 98 98 98 99 100 99 97 99 99 99 100
54 50 49 54 66 70 67 61 67 72 76 82 86 94 89 86 79 72 73 79 79 81 86 92 93 90 93 99 100 100 99 99 99 100 100 100 100 99 98 97 96 99 100
36 46 56 50 40 37 40 43 41 45 51 54 53 53 56 60 57 54 53 54 61 74 73 75 79 84 88 97 99 93 99 99 99 100 99 98 98 99 99 99 98 100 99
38 38 25 27 32 36 39 46 50 55 60 54 48 50 52 54 58 59 60 62 68 72 90 98 95 89 92 98 98 98 95 96 99 99 99 100 99 99 100 98 100 100 98
24 28 31 34 37 42 47 50 56 62 72 80 67 51 55 58 61 62 66 79 92 93 95 94 98 98 97 96 97 97 97 95 99 100 99 99 100 97 99 99 99 98 98
29 33 33 37 41 44 48 51 54 62 69 75 84 100 77 69 68 72 80 89 94 98 97 98 95 96 97 97 98 98 98 97 97 97 97 97 98 99 99 98 97 98 98
29 32 36 37 40 45 47 50 59 66 73 75 82 97 86 84 87 88 91 93 97 96 100 98 95 96 96 96 97 98 97 98 97 97 97 96 98 100 98 98 97 98 99
33 36 36 40 42 44 51 57 62 68 74 74 75 77 77 79 84 88 92 95 96 98 98 99 96 96 95 95 96 96 96 96 97 96 97 97 97 99 98 97 98 98 98
34 37 39 41 47 51 53 59 64 66 68 72 75 76 79 84 89 92 95 97 96 96 96 96 96 95 96 96 96 96 96 96 96 96 96 96 97 97 97 97 97 97 97
36 39 43 48 50 53 57 60 62 65 71 74 78 82 83 84 89 92 95 97 97 97 97 97 96 96 96 96 96 96 96 96 96 96 96 96 97 96 97 97 97 97 97
41 44 46 49 52 55 56 59 64 68 70 71 72 73 73 73 77 81 88 94 96 96 96 97 96 96 96 96 96 96 96 96 97 96 96 96 96 97 96 97 96 97 97
44 45 48 51 52 54 56 57 52 45 41 39 40 43 44 46 51 59 60 70 87 95 96 96 96 96 96 96 96 96 96 96 97 97 96 96 96 96 97 96 97 96 97
Wind_Speed
17 16 14 13 11 8 6 4 1 4 7 10 12 14 16 17 17 17 20 22 22 22 23 25 26 26 25 24 34 40 31 26 25 35 30 31 32 28 29 27 30 30 27
16 15 15 15 13 9 6 3 1 6 10 14 16 17 17 17 17 18 19 20 21 21 20 19 22 21 23 17 18 23 26 26 27 32 33 30 39 34 36 38 38 32 28
19 16 14 11 9 7 5 4 6 9 12 14 16 17 17 18 19 19 18 19 20 20 19 19 20 20 20 21 21 19 20 19 22 32 31 34 35 38 35 33 39 39 36
16 15 13 9 7 6 5 7 9 12 14 15 16 15 16 17 17 16 16 16 17 18 17 17 18 19 20 20 18 20 22 23 23 23 22 24 27 35 37 38 36 35 38
15 12 11 8 6 5 5 9 11 12 13 12 11 11 13 15 16 17 15 15 15 15 15 16 16 16 17 18 19 21 21 22 21 21 21 21 23 24 19 30 36 35 40
14 15 11 7 5 5 7 10 11 10 10 8 8 9 11 13 13 15 16 16 15 15 16 16 16 16 17 17 18 17 18 20 20 20 21 21 20 19 19 21 27 32 43
15 12 9 6 5 7 9 8 8 7 6 6 8 9 11 12 12 13 15 15 16 16 16 17 18 18 18 17 16 16 13 12 13 14 13 15 16 18 22 20 18 20 25
13 10 7 6 6 6 6 7 5 4 5 7 9 11 13 14 15 14 15 17 17 16 17 18 18 17 16 17 16 15 15 16 15 12 11 11 12 12 12 11 10 8 8
10 8 6 5 4 5 6 6 5 5 6 7 7 11 14 17 20 21 21 20 20 19 18 17 18 19 18 16 17 16 15 15 13 13 12 14 16 18 20 20 19 15 11
8 7 6 4 3 3 4 3 2 4 7 8 9 11 13 15 17 18 19 20 20 20 19 18 14 16 17 18 18 19 18 18 19 17 14 12 11 9 7 6 7 9 11
6 6 6 5 4 5 4 5 7 8 9 10 12 13 15 16 16 15 17 18 20 21 21 22 20 17 15 16 18 19 20 20 19 18 17 14 11 10 7 8 8 6 4
8 6 8 7 7 9 9 10 11 13 14 14 16 15 16 17 17 19 20 19 18 20 22 22 21 19 17 16 17 18 21 21 18 18 17 15 12 8 7 8 8 6 5
10 12 11 11 10 10 10 11 11 14 18 18 18 20 22 23 25 22 23 23 22 23 21 20 19 18 17 17 17 20 20 18 17 17 15 14 12 9 8 7 6 6 5
12 14 12 10 10 13 15 14 15 17 18 18 19 21 21 23 21 22 25 25 25 26 25 24 20 19 18 18 18 17 15 15 15 14 15 13 10 9 8 8 7 6 8
15 14 11 10 11 11 11 12 12 12 14 14 16 17 19 21 22 21 21 23 24 23 25 25 24 22 21 19 18 16 14 14 13 12 12 11 10 11 10 7 9 9 10
12 12 12 11 11 10 11 11 10 10 10 12 14 17 18 20 23 26 26 25 25 24 23 23 23 23 21 20 20 19 16 14 13 12 12 11 11 12 12 11 10 11 11
14 13 12 13 14 15 16 16 17 15 13 14 17 18 20 21 23 24 25 23 22 23 24 23 22 24 24 20 19 18 18 14 13 13 14 13 13 14 13 13 10 11 12
15 16 16 17 17 16 18 18 18 19 20 21 22 22 23 24 26 28 29 26 22 20 23 25 24 23 22 22 18 18 16 15 14 14 14 12 12 12 12 11 10 11 11
19 19 18 18 18 17 18 19 19 19 20 22 25 25 26 26 26 26 27 26 25 22 24 26 26 26 22 20 18 17 15 14 13 12 11 11 12 11 10 10 8 9 9
20 19 18 18 18 19 20 21 21 21 22 24 24 26 30 30 30 30 28 26 24 23 24 27 29 25 19 17 13 12 11 11 10 10 10 11 10 9 9 8 9 10 8
20 19 18 18 19 20 21 22 21 21 23 24 24 24 28 29 29 28 28 25 24 24 24 26 26 25 23 16 9 4 5 6 8 9 9 8 8 7 6 7 9 9 7
19 19 19 20 20 21 22 22 24 24 25 26 26 27 28 29 29 29 28 26 24 24 23 24 24 23 21 19 13 9 7 7 8 10 9 8 8 4 6 7 7 8 8
18 18 18 19 20 21 23 24 24 25 26 26 26 27 28 29 28 28 28 27 26 26 24 23 23 21 18 15 12 11 10 10 11 12 11 9 7 3 6 6 7 8 8
17 17 19 20 21 22 22 23 23 24 25 25 26 27 27 28 28 28 28 28 27 26 26 26 24 22 18 15 13 12 11 11 12 12 10 9 6 3 5 6 6 8 7
17 18 20 20 21 21 21 22 22 23 24 25 26 26 27 28 28 28 29 28 28 28 28 28 28 24 19 17 14 13 12 11 11 11 9 8 5 3 4 5 7 10 7
18 18 19 19 20 20 20 21 22 23 24 25 25 26 27 28 28 29 30 30 30 29 27 28 29 27 22 18 16 15 13 12 11 10 8 6 4 2 4 6 7 11 9
Wind_Direction
166 172 186 190 195 184 168 158 208 295 301 310 316 315 311 308 305 300 299 296 294 302 307 304 300 303 303 280 298 286 283 306 290 285 279 290 276 284 282 292 292 283 288
157 157 152 149 147 147 142 131 16 338 334 325 319 313 308 309 314 314 315 318 320 317 318 311 305 307 304 316 297 300 303 289 288 284 283 283 284 286 273 288 294 289 281
147 145 140 139 139 130 114 57 4 341 333 326 322 318 316 320 324 327 329 329 330 330 328 324 324 317 306 302 295 296 287 284 291 289 277 289 285 287 282 283 286 285 278
143 142 147 143 122 95 49 17 360 345 333 329 326 328 329 334 335 339 340 337 330 328 334 337 334 330 323 317 313 296 294 295 293 289 287 291 284 276 282 287 286 286 281
153 141 134 128 102 71 28 7 353 339 334 335 334 339 344 345 350 352 352 351 350 355 358 357 358 357 348 341 335 330 321 313 309 304 304 302 298 290 299 294 284 286 285
148 142 142 124 93 51 21 1 349 343 337 343 340 345 351 357 3 5 2 1 3 3 5 9 7 4 3 357 352 353 354 346 341 336 327 323 324 316 305 287 280 280 270
140 144 135 115 66 27 9 356 356 5 15 19 12 3 5 6 11 4 1 2 1 0 359 357 358 356 355 -0 2 356 352 350 345 345 347 345 345 345 332 316 301 277 257
138 136 124 84 41 20 13 14 21 24 25 23 13 10 2 352 349 348 349 348 346 347 346 344 343 343 342 343 344 346 348 345 335 325 314 311 315 321 331 335 329 325 267
133 132 107 69 48 36 26 22 21 12 18 18 1 345 345 338 336 339 336 336 335 337 335 334 333 332 333 332 332 332 337 336 333 326 318 301 293 293 292 291 289 291 280
125 117 96 77 60 44 35 29 32 355 360 355 349 340 335 334 332 338 335 337 334 333 334 332 324 323 326 324 324 325 325 325 325 326 326 329 326 320 333 305 330 299 288
137 122 103 78 64 61 60 47 36 24 16 8 5 4 0 354 348 351 348 341 339 336 334 332 331 329 322 317 316 317 318 316 315 316 317 317 315 317 304 299 290 311 313
141 115 84 74 67 69 56 44 31 15 6 7 4 7 4 354 351 353 352 351 341 337 335 336 336 333 327 321 317 314 314 310 306 306 306 307 304 307 308 289 291 277 265
111 95 79 65 56 49 44 32 23 8 6 9 4 359 355 353 348 344 340 341 342 338 335 333 329 327 317 313 310 310 308 309 309 305 303 299 295 291 273 276 282 281 281
94 78 70 57 42 31 26 27 28 19 14 9 4 358 355 352 349 341 337 333 334 334 333 335 327 322 313 306 304 307 307 311 308 306 302 297 290 281 273 259 259 260 264
86 77 65 53 41 39 41 34 31 26 5 0 357 351 349 346 347 340 333 332 330 327 321 322 327 326 323 323 322 315 309 306 302 299 301 297 276 275 277 256 254 253 257
80 70 65 57 50 35 27 30 27 18 3 354 351 347 337 330 326 325 320 319 322 326 323 316 313 316 312 317 316 315 311 303 299 297 287 282 278 273 273 270 256 253 253
75 70 62 48 40 37 36 32 25 27 20 7 0 355 352 349 346 342 336 328 317 309 311 318 311 307 307 308 312 306 304 300 296 292 288 283 276 271 265 269 255 247 240
75 65 56 56 53 47 42 37 30 23 16 10 8 2 1 357 352 347 345 340 336 342 346 346 334 319 309 310 309 303 297 296 291 286 287 287 286 274 269 266 252 233 227
73 71 67 62 54 47 41 33 28 21 15 7 360 359 360 357 353 352 354 360 358 353 352 351 352 342 324 310 305 301 290 290 295 294 292 291 292 278 263 256 234 214 220
76 68 62 57 50 42 34 28 23 17 12 9 8 -0 0 0 1 2 3 1 2 357 355 348 347 350 4 354 323 305 301 301 299 308 298 299 293 276 257 239 213 206 221
73 69 61 54 47 40 33 30 27 22 16 13 12 5 6 6 5 4 2 359 357 351 349 343 343 343 347 3 3 344 326 327 322 319 312 312 305 279 243 210 198 198 212
73 67 60 55 50 45 42 38 34 30 24 19 15 11 8 8 6 4 2 356 354 350 345 342 340 340 340 346 357 3 355 343 342 345 345 329 329 281 209 183 187 202 197
71 68 63 59 54 49 44 40 35 30 25 21 16 13 11 10 9 7 5 4 3 358 356 352 349 345 345 347 353 349 346 344 342 342 343 343 338 296 195 188 194 188 190
72 69 64 59 52 46 41 37 33 28 25 21 18 16 13 11 10 8 8 8 7 7 7 6 3 358 356 357 358 352 339 329 328 330 332 337 326 299 208 192 192 187 179
71 66 60 54 48 43 36 33 30 28 25 22 19 17 15 12 11 11 10 9 8 7 9 11 11 8 5 3 359 354 347 341 335 331 329 330 321 286 205 197 191 182 180
66 61 56 50 44 39 35 34 32 28 25 22 19 17 15 14 13 11 11 10 9 8 7 10 13 11 8 6 3 354 348 346 345 346 337 333 326 258 211 185 185 183 179